This demonstration page uses our WeatherBlox Daily Observations layout. Learn more.

Left ArrowRight Arrow

34.74481, -87.66753

Hourly Observations for July 14, 2019

Temp ( °F °C ) Dew Point ( °F °C ) Humidity (%) Winds ( mph kmh ) Pressure ( in mb ) Visibility ( mi km ) Precip ( " mm )
12:53 am 00:53 Mostly Cloudy 77 25 73 22.8 88 88 E 5 7 30.10 1019 10 16 0.00 0.00
1:53 am 01:53 Clear 76 24.4 72 22.2 88 88 SE 3 6 30.11 1020 10 16 0.00 0.00
2:53 am 02:53 Mostly Clear 76 24.4 73 22.8 91 91 Calm 30.10 1019 10 16 0.00 0.00
3:53 am 03:53 Mostly Clear 76 24.4 73 22.8 91 91 Calm 30.09 1019 10 16 0.00 0.00
4:53 am 04:53 Clear 76 24.4 73 22.8 91 91 SSE 3 6 30.09 1019 10 16 0.00 0.00
5:53 am 05:53 Sunny 76 24.4 73 22.8 91 91 Calm 30.10 1019 10 16 0.00 0.00
7:53 am 07:53 Sunny 77 25 73 22.8 88 88 ENE 3 6 30.13 1020 10 16 0.00 0.00
8:53 am 08:53 Sunny 79 26.1 73 22.8 82 82 ESE 3 6 30.15 1021 10 16 0.00 0.00
9:53 am 09:53 Sunny 81 27.2 72 22.2 74 74 SE 5 7 30.16 1022 10 16 0.00 0.00
10:53 am 10:53 Sunny 84 28.9 73 22.8 70 70 E 8 13 30.17 1022 10 16 0.00 0.00
11:53 am 11:53 Partly Cloudy 87 30.6 74 23.3 65 65 VRB 6 9 30.16 1021 10 16 0.00 0.00
12:12 pm 12:12 Mostly Cloudy 87 30.6 74 23.3 65 65 ESE 8 13 30.15 1021 10 16 0.00 0.00
12:25 pm 12:25 Partly Cloudy 89 31.7 74 23.3 61 61 SE 8 13 30.14 1021 10 16 0.00 0.00
12:53 pm 12:53 Sunny 88 31.1 73 22.8 61 61 ESE 10 17 30.14 1021 10 16 0.00 0.00
1:53 pm 13:53 Sunny 88 31.1 74 23.3 63 63 E 10 17 30.12 1020 10 16 0.00 0.00
2:53 pm 14:53 Partly Cloudy 87 30.6 74 23.3 65 65 E 7 11 30.10 1019 10 16 0.00 0.00
3:53 pm 15:53 Sunny 86 30 74 23.3 67 67 E 7 11 30.09 1019 10 16 0.00 0.00
4:53 pm 16:53 Mostly Cloudy 84 28.9 71 21.7 65 65 NW 10 17 30.10 1019 10 16 0.00 0.00
5:08 pm 17:08 Mostly Cloudy 77 25 71 21.7 82 82 NW 12 19 30.12 1020 10 16 0.00 0.00
5:53 pm 17:53 Cloudy with Light Rain 74 23.3 72 22.2 94 94 WNW 12 19 30.13 1020 10 16 0.18 4.57
6:08 pm 18:08 Cloudy with Light Rain 74 23.3 71 21.7 91 91 NW 9 15 30.13 1020 10 16 0.00 0.03
6:42 pm 18:42 Cloudy with Heavy Rain 73 22.8 71 21.7 94 94 W 9 15 30.15 1021 10 16 0.44 11.18
6:50 pm 18:50 Cloudy with Heavy Rain 73 23 72 22 94 94 SE 5 7 30.16 1021 10 16 0.50 12.70
6:53 pm 18:53 Cloudy with Heavy Rain 73 22.8 71 21.7 94 94 E 5 7 30.16 1021 10 16 0.52 13.21
7:16 pm 19:16 Cloudy with Rain 73 22.8 71 21.7 94 94 E 3 6 30.15 1021 10 16 0.08 2.03
7:53 pm 19:53 Cloudy with Rain 73 22.8 71 21.7 94 94 ENE 6 9 30.16 1021 10 16 0.19 4.83
8:53 pm 20:53 Mostly Clear with Light Rain 74 23.3 71 21.7 91 91 ENE 6 9 30.15 1021 10 16 0.06 1.52
9:32 pm 21:32 Partly Cloudy with Light Rain 74 23.3 72 22.2 94 94 SE 5 7 30.16 1021 10 16 0.03 0.76
9:53 pm 21:53 Partly Cloudy with Light Rain 73 22.8 71 21.7 94 94 NE 5 7 30.15 1021 10 16 0.08 2.03
10:53 pm 22:53 Clear with Light Rain 74 23.3 72 22.2 94 94 Calm 30.14 1021 10 16 0.01 0.25
11:53 pm 23:53 Mostly Clear with Light Rain 74 23.3 71 21.7 91 91 NE 3 6 30.11 1020 10 16 0.00 0.03

Powered by AerisWeather